Date String (YYYY-MM-DD hh:mm:ss) UTC,Instrument flags,absolute air pressure of the measurement (hPa),sample flow rate (lpm),inlet stack bypass flow (lpm),air temperature of the measurement (°C),ambient temperature measured by the external sensor (°C),aerosol sample conditioner tube jacket temperature (°C),OPC LED temperature (°C),internal box temperature (°C),relative humidity of the measurement (%),span deviation,mass concentration of particles derived from Lorenz-Mie calculation of OPC scattering (μg/m³),mass concentration of particles derived from Lorenz-Mie calculation of OPC scattering (μg/m³),mass concentration of particles derived from Lorenz-Mie calculation of OPC scattering (μg/m³)
DateTimeUTC,F1_M11,P_M11,Q1_M11,Q2_M11,T1_M11,T2_M11,T3_M11,T4_M11,T5_M11,U1_M11,ZSPAN_M11,X2_M11,X0_M11,X1_M11
2023-09-13 20:00:00,SystemResetWarning,0829.5,5.00,000.00,027.5,025.5,000.0,036.0,029.1,26.8,-000.1,0006.54,0017.20,0005.78
2023-09-13 20:01:00,SystemResetWarning,0829.6,5.01,000.00,027.6,025.8,000.0,036.0,029.2,27.0,0000.3,0006.56,0016.67,0005.80
2023-09-13 20:02:00,SystemResetWarning,0829.6,5.00,000.00,027.6,026.1,000.0,036.0,029.3,26.6,-000.0,0006.56,0016.05,0005.83
2023-09-13 20:03:00,SystemResetWarning,0829.6,5.00,000.00,027.7,026.3,000.0,036.0,029.3,26.9,0000.1,0006.64,0015.33,0005.86
2023-09-13 20:04:00,SystemResetWarning,0829.6,5.00,000.00,027.7,026.5,000.0,036.0,029.4,25.8,0000.1,0006.71,0015.57,0005.87
2023-09-13 20:05:00,SystemResetWarning,0829.5,5.00,000.00,027.8,026.7,000.0,036.0,029.4,24.6,-000.1,0006.72,0015.18,0005.89
2023-09-13 20:06:00,SystemResetWarning,0829.6,4.99,000.00,027.8,026.8,000.0,036.1,029.5,25.1,-000.4,0006.75,0014.66,0005.94
2023-09-13 20:07:00,SystemResetWarning,0829.5,4.98,000.00,027.8,025.9,000.0,036.0,029.3,24.6,-000.3,0006.80,0014.69,0005.97
2023-09-13 20:08:00,SystemResetWarning,0829.4,5.01,000.00,027.7,024.4,000.0,036.0,028.7,25.0,-000.3,0006.82,0014.23,0006.01
2023-09-13 20:09:00,SystemResetWarning,0829.4,5.00,000.00,027.6,023.9,000.0,035.9,028.7,25.2,-000.5,0006.85,0014.08,0006.04
2023-09-13 20:10:00,SystemResetWarning,0829.3,5.00,000.00,027.5,024.2,000.0,035.9,028.7,25.0,-000.2,0006.91,0013.58,0006.06
2023-09-13 20:11:00,SystemResetWarning,0829.4,5.00,000.00,027.5,024.5,000.0,035.9,028.8,25.5,0000.4,0006.97,0012.39,0006.09
2023-09-13 20:12:00,SystemResetWarning,0829.3,4.99,000.00,027.5,024.9,000.0,035.9,028.9,25.4,0000.3,0006.98,0013.22,0006.09
2023-09-13 20:13:00,SystemResetWarning,0829.4,5.00,000.00,027.5,025.3,000.0,035.9,029.0,25.7,0000.6,0006.97,0014.24,0006.07
2023-09-13 20:14:00,SystemResetWarning,0829.3,5.00,000.00,027.5,025.7,000.0,035.9,029.1,25.2,0000.3,0006.93,0015.61,0006.04
2023-09-13 20:15:00,SystemResetWarning,0829.3,5.01,000.00,027.6,026.0,000.0,035.9,029.2,25.3,0000.4,0006.86,0016.00,0006.02
2023-09-13 20:16:00,SystemResetWarning,0829.3,5.00,000.00,027.6,026.2,000.0,035.9,029.3,25.2,0000.6,0006.86,0016.13,0005.99
2023-09-13 20:17:00,SystemResetWarning,0829.4,5.00,000.00,027.7,026.5,000.0,036.0,029.3,25.4,0001.0,0006.83,0016.32,0005.94
2023-09-13 20:18:00,SystemResetWarning,0829.3,5.00,000.00,027.7,026.7,000.0,036.0,029.4,25.3,0001.4,0006.77,0015.88,0005.89
2023-09-13 20:19:00,SystemResetWarning,0829.3,5.01,000.00,027.8,026.8,000.0,036.0,029.5,25.3,0001.6,0006.73,0015.98,0005.84
2023-09-13 20:20:00,SystemResetWarning,0829.3,5.00,000.00,027.8,027.0,000.0,036.0,029.6,25.5,0001.9,0006.69,0016.01,0005.78
2023-09-13 20:21:00,SystemResetWarning,0829.3,4.99,000.00,027.9,026.6,000.0,036.0,029.5,24.8,0001.7,0006.59,0015.56,0005.72
2023-09-13 20:22:00,SystemResetWarning,0829.4,4.99,000.00,027.8,024.9,000.0,036.0,029.0,24.0,0001.2,0006.48,0015.49,0005.66
2023-09-13 20:23:00,SystemResetWarning,0829.4,5.00,000.00,027.6,024.0,000.0,035.9,028.8,23.9,0001.2,0006.37,0014.82,0005.60
2023-09-13 20:24:00,SystemResetWarning,0829.3,5.01,000.00,027.6,024.1,000.0,035.9,028.8,22.8,0001.4,0006.34,0014.07,0005.56
2023-09-13 20:25:00,SystemResetWarning,0829.3,5.00,000.00,027.5,024.4,000.0,035.9,028.8,21.9,0001.9,0006.29,0012.88,0005.53
2023-09-13 20:26:00,SystemResetWarning,0829.4,4.99,000.00,027.5,024.8,000.0,035.9,028.9,22.4,0002.0,0006.24,0012.06,0005.49
2023-09-13 20:27:00,SystemResetWarning,0829.4,4.99,000.00,027.5,025.2,000.0,035.9,029.0,21.7,0001.8,0006.17,0011.65,0005.45
2023-09-13 20:28:00,SystemResetWarning,0829.3,5.00,000.00,027.6,025.6,000.0,035.9,029.1,22.1,0001.6,0006.11,0011.63,0005.42
2023-09-13 20:29:00,SystemResetWarning,0829.4,5.01,000.00,027.6,025.9,000.0,035.9,029.2,23.1,0001.8,0006.07,0013.35,0005.39
2023-09-13 20:30:00,SystemResetWarning,0829.4,5.00,000.00,027.6,026.2,000.0,036.0,029.3,23.0,0001.6,0006.04,0015.87,0005.37
2023-09-13 20:31:00,SystemResetWarning,0829.4,4.99,000.00,027.7,026.4,000.0,036.0,029.4,23.1,0001.7,0005.98,0015.70,0005.35
2023-09-13 20:32:00,SystemResetWarning,0829.4,5.00,000.00,027.7,026.6,000.0,036.0,029.5,22.8,0001.6,0005.98,0015.74,0005.34
2023-09-13 20:33:00,SystemResetWarning,0829.3,5.00,000.00,027.8,026.8,000.0,036.0,029.5,22.1,0001.6,0005.99,0015.93,0005.35
2023-09-13 20:34:00,SystemResetWarning,0829.3,4.99,000.00,027.8,026.2,000.0,036.0,029.4,20.2,0001.8,0006.03,0016.19,0005.34
2023-09-13 20:35:00,SystemResetWarning,0829.3,5.00,000.00,027.7,025.0,000.0,035.9,029.1,20.1,0002.1,0006.03,0016.22,0005.32
2023-09-13 20:36:00,SystemResetWarning,0829.2,5.01,000.00,027.7,024.9,000.0,035.9,029.1,19.9,0001.9,0006.00,0015.69,0005.31
2023-09-13 20:37:00,SystemResetWarning,0829.2,5.00,000.00,027.6,025.1,000.0,036.0,029.1,19.8,0001.6,0006.00,0016.08,0005.30
2023-09-13 20:38:00,SystemResetWarning,0829.2,4.99,000.00,027.6,025.4,000.0,036.0,029.1,20.1,0001.8,0006.02,0016.45,0005.29
2023-09-13 20:39:00,SystemResetWarning,0829.3,5.00,000.00,027.7,025.7,000.0,036.0,029.2,19.5,0001.8,0006.02,0016.98,0005.28
2023-09-13 20:40:00,SystemResetWarning,0829.2,5.00,000.00,027.7,026.0,000.0,036.0,029.3,19.0,0001.4,0006.02,0015.61,0005.27
2023-09-13 20:41:00,SystemResetWarning,0829.2,5.01,000.00,027.7,026.3,000.0,036.0,029.4,18.5,0001.6,0005.99,0012.97,0005.25
2023-09-13 20:42:00,SystemResetWarning,0829.2,5.01,000.00,027.8,026.5,000.0,036.1,029.5,18.1,0002.3,0005.98,0012.84,0005.22
2023-09-13 20:43:00,SystemResetWarning,0829.2,5.00,000.00,027.8,026.7,000.0,036.1,029.5,18.7,0002.2,0005.95,0013.42,0005.20
2023-09-13 20:44:00,SystemResetWarning,0829.2,4.98,000.00,027.9,026.3,000.0,036.1,029.4,19.9,0002.4,0005.91,0013.44,0005.17
2023-09-13 20:45:00,SystemResetWarning,0829.2,5.00,000.00,027.7,024.7,000.0,036.0,028.9,20.3,0001.8,0005.87,0013.13,0005.15
2023-09-13 20:46:00,SystemResetWarning,0829.1,5.00,000.00,027.6,023.9,000.0,035.9,028.8,20.0,0001.4,0005.84,0013.47,0005.13
2023-09-13 20:47:00,SystemResetWarning,0829.1,5.01,000.00,027.5,024.1,000.0,035.9,028.8,21.4,0001.2,0005.82,0013.92,0005.10
2023-09-13 20:48:00,SystemResetWarning,0829.1,5.01,000.00,027.5,024.4,000.0,035.9,028.8,20.5,0001.6,0005.81,0014.00,0005.08
2023-09-13 20:49:00,SystemResetWarning,0829.1,5.00,000.00,027.5,024.8,000.0,035.9,028.9,21.5,0001.8,0005.74,0013.90,0005.05
2023-09-13 20:50:00,SystemResetWarning,0829.1,5.00,000.00,027.5,025.2,000.0,035.9,029.0,21.4,0001.7,0005.71,0013.28,0005.03
2023-09-13 20:51:00,SystemResetWarning,0829.1,5.00,000.00,027.5,025.6,000.0,035.9,029.1,20.6,0001.6,0005.61,0012.90,0005.01
2023-09-13 20:52:00,SystemResetWarning,0829.1,5.00,000.00,027.6,025.9,000.0,035.9,029.2,18.6,0000.7,0005.55,0012.63,0004.97
2023-09-13 20:53:00,SystemResetWarning,0829.1,5.00,000.00,027.6,026.2,000.0,036.0,029.3,18.5,-000.1,0005.52,0012.87,0004.94
2023-09-13 20:54:00,SystemResetWarning,0829.2,5.00,000.00,027.7,026.4,000.0,036.0,029.3,18.6,-000.1,0005.51,0013.11,0004.92
2023-09-13 20:55:00,SystemResetWarning,0829.2,5.00,000.00,027.7,026.6,000.0,036.0,029.4,17.7,0000.1,0005.47,0012.41,0004.88
2023-09-13 20:56:00,SystemResetWarning,0829.1,5.00,000.00,027.8,026.8,000.0,036.0,029.5,17.5,0000.8,0005.42,0012.39,0004.85
2023-09-13 20:57:00,SystemResetWarning,0829.1,5.00,000.00,027.8,026.9,000.0,036.1,029.6,17.9,0000.9,0005.40,0012.17,0004.82
2023-09-13 20:58:00,SystemResetWarning,0829.1,4.99,000.00,027.8,026.2,000.0,036.0,029.4,17.5,0001.2,0005.35,0011.54,0004.78
2023-09-13 20:59:00,SystemResetWarning,0829.1,4.99,000.00,027.8,025.0,000.0,036.0,029.1,18.2,0001.3,0005.29,0010.93,0004.74
